[[{"header":{"parameterUnit":"m.s-1","parameterCategory":1,"la1":30.2992,"la2":30.254,"lo1":-89.0895,"lo2":-89.0443,"dy":0.0025,"dx":0.0025,"nx":19,"ny":19,"refTime":"2026-03-28T09:00:00:Z","depth":0,"parameterNumber":2,"parameterNumberName":"U-component_of_WINDS"},"data":[0,0,0,-6.3627,-6.363,-6.3711,-6.3711,-6.3868,-6.3869,0,0,0,0,0,0,0,0,0,0,0,-6.3636,-6.3638,-6.3627,-6.363,-6.3711,-6.3711,-6.3867,-6.3869,0,0,0,0,0,0,0,0,0,0,0,-6.3635,-6.3638,-6.364,-6.3631,-6.3711,-6.3711,-6.3867,-6.3787,0,0,0,0,0,0,0,0,0,0,-6.3699,-6.3739,-6.3637,-6.364,-6.3631,-6.3711,-6.3711,-6.3782,-6.3792,-6.3854,0,-6.3918,0,-6.3897,-6.3883,-6.3884,0,0,0,-6.3606,-6.3731,-6.3723,-6.3641,-6.3632,-6.3711,-6.3668,-6.3787,-6.3798,-6.3867,-6.392,-6.3924,-6.3899,-6.3885,-6.3886,-6.4327,-6.433,0,0,-6.3601,-6.3668,-6.3716,-6.3732,-6.3724,-6.3665,-6.367,-6.3793,-6.3854,-6.392,-6.3927,-6.3902,-6.3886,-6.3888,-6.4324,-6.4328,0,0,0,-6.3605,-6.3666,-6.3654,-6.3727,-6.3738,-6.3668,-6.3674,-6.3849,-6.3839,-6.3928,-6.3904,-6.3887,-6.389,-6.432,-6.4325,-6.4549,0,0,0,-6.3601,-6.3668,-6.3653,-6.3695,-6.3737,-6.3795,-6.3729,-6.3831,-6.3843,-6.3903,-6.3887,-6.3892,-6.4317,-6.4323,-6.4535,-6.4643,0,0,0,-6.362,-6.3669,-6.3693,-6.3699,-6.3736,-6.3791,-6.3788,-6.3832,-6.3829,-6.3884,-6.3892,-6.4314,-6.4322,-6.4523,-6.4623,-6.4779,0,0,0,-6.3659,-6.389,-6.3698,-6.3947,-6.3736,-6.393,-6.3786,-6.3927,-6.4001,-6.3888,-6.4317,-6.4325,-6.4519,-6.461,-6.4766,-6.4922,-6.4993,0,0,-6.3988,-6.3933,-6.4074,-6.3903,-6.4149,-6.3912,-6.4189,-6.4193,-6.4137,-6.4267,-6.4276,-6.454,-6.4621,-6.4776,-6.5371,-6.5428,0,0,0,-6.4201,-6.4303,-6.4354,-6.4428,-6.4437,-6.4454,-6.4408,-6.441,-6.4517,-6.4218,-6.4636,-6.4683,-6.4771,-6.4842,-6.4891,-6.4962,-6.4361,-6.436,-6.4359,-6.4763,-6.4679,-6.4907,-6.4834,-6.4908,-6.4859,-6.4911,-6.4904,-6.4797,-6.4898,-6.4936,-6.5307,-6.5393,-6.5429,-6.5505,-6.5012,-6.5013,-6.5013,-6.5014,-6.5237,-6.5369,-6.5223,-6.5391,-6.5302,-6.5442,-6.5405,-6.5325,-6.5443,-6.5272,-6.5345,-6.5165,-6.5495,-6.5556,-6.503,-6.5027,-6.5025,-6.5024,-6.5022,-6.5595,-6.5643,-6.5642,-6.574,-6.5826,-6.5743,-6.5863,-6.5777,-6.5696,-6.5769,-6.5799,-6.5795,-6.578,-6.579,-6.5791,-6.5792,-6.5794,-6.5794,-6.5795,-6.5967,-6.5958,-6.6069,-6.61,-6.6136,-6.6173,-6.6128,-6.6161,-6.6175,-6.6103,-6.6102,-6.5986,-6.5543,-6.5433,-6.5815,-6.5811,-6.5809,-6.5807,-6.5806,-6.6477,-6.6348,-6.6521,-6.6558,-6.6586,-6.6677,-6.6566,-6.6641,-6.6656,-6.6718,-6.6587,-6.6273,-6.621,-6.617,-6.6079,-6.6604,-6.6604,-6.6604,-6.6604,-6.6778,-6.6738,-6.6895,-6.696,-6.7013,-6.6931,-6.7129,-6.7096,-6.7042,-6.7046,-6.6958,-6.6829,-6.6793,-6.675,-6.6699,-6.6611,-6.7261,-6.7262,-6.7262,-6.7087,-6.7048,-6.7233,-6.7179,-6.7195,-6.7211,-6.7395,-6.7475,-6.7386,-6.7287,-6.7047,-6.702,-6.6811,-6.6747,-6.6642,-6.6563,-6.6402,0,0]},{"header":{"parameterUnit":"m.s-1","parameterCategory":1,"la1":30.2992,"la2":30.254,"lo1":-89.0895,"lo2":-89.0443,"dy":0.0025,"dx":0.0025,"nx":19,"ny":19,"refTime":"2026-03-28T09:00:00:Z","depth":0,"parameterNumber":3,"parameterNumberName":"V-component_of_WINDS"},"data":[0,0,0,0.2651,0.2649,0.2533,0.2533,0.2404,0.2403,0,0,0,0,0,0,0,0,0,0,0,0.2698,0.2697,0.2651,0.2649,0.2533,0.2533,0.2404,0.2403,0,0,0,0,0,0,0,0,0,0,0,0.2698,0.2697,0.2697,0.2648,0.2534,0.2533,0.2404,0.2484,0,0,0,0,0,0,0,0,0,0,0.2593,0.2648,0.2697,0.2697,0.2648,0.2534,0.2533,0.2488,0.2479,0.2464,0,0.2456,0,0.2428,0.2395,0.2395,0,0,0,0.2639,0.2656,0.2614,0.2697,0.2647,0.2534,0.2583,0.2483,0.2473,0.2453,0.2454,0.2449,0.2426,0.2395,0.2394,0.2348,0.2348,0,0,0.2645,0.2683,0.2621,0.2608,0.2629,0.2586,0.2579,0.2477,0.2479,0.2453,0.2445,0.2423,0.2394,0.2393,0.2348,0.2348,0,0,0,0.267,0.2688,0.2648,0.2614,0.2592,0.2583,0.2575,0.2483,0.2467,0.2444,0.2422,0.2393,0.2392,0.2348,0.2348,0.24,0,0,0,0.2673,0.2702,0.2651,0.2673,0.2594,0.2537,0.2585,0.2475,0.2462,0.2423,0.2393,0.2391,0.2347,0.2348,0.2398,0.2417,0,0,0,0.2701,0.2705,0.2693,0.2676,0.2628,0.2537,0.2515,0.2471,0.2449,0.2395,0.2391,0.2347,0.2348,0.2396,0.2414,0.2418,0,0,0,0.274,0.2738,0.2695,0.2684,0.2629,0.2571,0.2515,0.2469,0.2429,0.2393,0.2347,0.2348,0.2395,0.2412,0.2416,0.2429,0.2438,0,0,0.2759,0.2742,0.2732,0.269,0.265,0.2585,0.2552,0.2477,0.2435,0.2379,0.2378,0.2398,0.2414,0.2418,0.2472,0.2479,0,0,0,0.2751,0.2745,0.2726,0.2691,0.2637,0.2591,0.2519,0.2491,0.2443,0.2415,0.2399,0.2407,0.2408,0.2412,0.2418,0.2417,0.2351,0.2351,0.2351,0.2831,0.2781,0.2763,0.27,0.2667,0.2594,0.2562,0.2513,0.2469,0.2467,0.245,0.2489,0.2496,0.25,0.25,0.2452,0.2452,0.2452,0.2452,0.2854,0.2839,0.2785,0.2749,0.2696,0.2663,0.2594,0.2565,0.2527,0.2497,0.2495,0.2468,0.251,0.2507,0.2455,0.2455,0.2454,0.2454,0.2454,0.2902,0.2886,0.2855,0.2802,0.2766,0.2701,0.2669,0.2621,0.2575,0.2573,0.2551,0.255,0.2544,0.2566,0.2566,0.2566,0.2566,0.2567,0.2567,0.2964,0.2927,0.2907,0.2852,0.2824,0.2782,0.2711,0.2682,0.2638,0.2605,0.2605,0.2563,0.2523,0.2515,0.2569,0.2568,0.2568,0.2568,0.2568,0.3007,0.2991,0.296,0.2933,0.2865,0.2834,0.2774,0.272,0.2689,0.2676,0.2635,0.2613,0.2591,0.2586,0.2578,0.2645,0.2645,0.2645,0.2645,0.3048,0.3033,0.2993,0.2954,0.2909,0.2853,0.282,0.2765,0.2705,0.2683,0.2666,0.2653,0.2649,0.2629,0.2623,0.2616,0.269,0.269,0.269,0.3073,0.3052,0.3034,0.2978,0.2922,0.2875,0.2843,0.2799,0.2727,0.2691,0.2665,0.2663,0.264,0.2635,0.2599,0.259,0.2575,0,0]}]]